Wind_Speed
26 25 26 28 30 32 34 36 38 38 37 37 36 35 33 34 35 37 37 37 36 34 33 32 30 27 26 25 24 23 22 22 23 23 24 23 23 22
24 24 23 24 24 26 30 33 35 36 36 35 35 34 32 32 33 35 38 36 35 33 32 30 28 26 25 24 23 22 21 21 23 24 25 25 23 22
23 23 22 22 22 23 24 27 33 35 34 33 33 32 33 32 31 32 33 33 30 27 27 26 25 25 24 24 22 22 21 22 22 24 23 24 23 21
24 24 24 24 25 23 21 19 23 28 29 29 29 28 28 29 29 28 26 25 22 22 23 24 24 24 23 23 22 22 21 22 23 22 22 22 22 20
26 27 28 28 27 25 22 20 19 19 19 21 23 25 25 25 27 26 22 19 19 22 24 24 23 23 23 22 23 24 23 23 23 22 21 21 20 19
27 29 30 30 29 28 26 24 23 21 19 19 19 19 20 20 21 22 21 19 20 22 23 22 22 22 21 22 23 24 24 23 22 22 21 21 19 17
28 29 29 29 29 29 29 28 27 26 24 23 22 21 20 18 19 21 22 21 22 23 23 22 23 21 21 21 22 22 21 20 19 20 21 21 19 18
27 28 28 28 28 29 30 30 29 29 29 28 28 26 25 23 22 22 22 23 24 25 25 24 23 21 20 21 21 20 19 18 18 19 20 20 20 20
25 25 26 27 27 28 29 31 31 31 31 32 32 32 30 28 27 26 26 26 28 28 28 27 26 24 23 23 22 21 21 21 21 21 22 23 23 24
24 24 24 25 25 27 28 29 30 31 32 34 34 35 35 34 32 31 31 31 30 30 30 29 28 26 25 24 24 25 25 25 25 25 25 26 27 27
23 22 23 23 24 25 27 28 30 31 33 35 37 38 39 38 38 37 35 34 34 35 34 32 31 30 30 30 29 28 29 28 27 27 28 29 31 32
19 20 21 22 23 23 24 25 26 28 31 34 36 38 39 41 41 41 40 39 39 39 40 39 38 38 37 36 35 33 32 32 31 30 31 32 33 34
20 21 22 23 23 24 24 25 25 26 27 29 31 33 34 36 39 43 44 43 42 42 43 43 43 43 44 43 42 41 40 39 38 37 35 34 35 35
22 23 24 25 25 26 27 28 29 30 30 31 31 31 31 32 33 36 39 42 43 43 43 43 45 45 45 46 46 46 47 47 46 44 42 39 36 36
23 26 28 29 30 31 31 32 32 33 33 33 34 34 33 33 33 32 33 35 38 41 43 45 45 45 45 46 46 47 49 49 49 48 46 44 41 39
25 27 29 30 31 31 31 31 31 31 31 31 31 33 34 35 34 33 32 31 32 35 38 41 44 45 45 46 46 46 46 47 48 48 48 47 45 44
26 26 26 26 26 26 26 26 27 28 29 29 29 30 31 32 33 34 34 34 33 32 32 34 37 41 45 47 47 46 44 43 44 45 46 46 46 45
25 25 25 24 24 23 23 24 25 26 27 28 29 30 30 31 32 33 34 35 36 36 34 33 32 33 37 42 46 46 46 44 43 44 44 44 43 42
23 23 24 24 24 24 25 25 25 25 25 25 26 27 29 30 32 34 35 36 37 38 38 37 35 33 31 32 34 39 41 42 42 42 43 43 43 42
24 25 25 26 26 27 27 27 27 26 26 26 26 26 26 28 29 32 35 38 39 40 40 41 40 39 37 34 31 29 30 33 36 39 40 41 41 41
25 26 27 28 29 29 30 30 29 28 28 28 27 27 28 29 30 32 32 34 37 39 41 42 43 44 44 41 37 35 33 32 31 32 33 34 35 36
25 26 27 27 28 30 31 30 29 28 27 27 27 26 27 27 28 29 28 29 30 34 37 40 43 45 46 46 44 42 40 39 36 33 32 31 32 32
25 25 26 26 27 28 29 29 27 26 25 25 25 26 26 26 25 25 25 25 25 28 31 34 38 42 45 47 47 45 44 43 42 38 35 35 34 33
Wind_Direction
287 288 289 285 281 278 273 266 262 260 259 259 261 264 265 263 261 257 254 257 259 258 255 254 253 253 252 251 250 252 253 252 252 252 254 258 256 257
282 286 290 292 289 287 278 268 264 260 258 259 261 263 264 263 261 256 254 250 247 247 247 247 248 250 251 249 248 252 254 251 249 248 253 256 254 255
272 277 283 291 296 298 292 275 264 259 258 258 257 257 259 260 252 248 243 239 236 238 243 244 247 247 247 247 248 250 250 248 250 254 254 254 250 249
268 269 277 286 294 300 303 292 272 259 256 256 256 256 255 248 239 239 245 243 239 245 248 249 247 247 247 247 247 246 247 250 256 258 257 255 251 247
267 266 269 276 284 288 291 294 290 276 265 263 262 259 253 245 239 238 241 243 249 253 252 248 246 246 246 247 246 245 247 253 256 256 253 251 247 240
266 265 267 271 274 277 278 278 279 280 280 280 278 270 263 255 249 245 244 246 252 254 251 246 245 244 245 246 246 247 250 255 257 252 244 239 234 231
265 265 266 268 269 271 272 271 269 269 271 274 275 273 268 263 259 256 256 256 256 255 253 250 249 245 241 241 243 246 248 250 250 247 243 239 235 231
266 266 266 267 268 268 268 268 267 266 264 265 267 267 266 263 259 257 255 254 253 253 252 252 251 248 245 244 243 243 245 245 247 247 245 243 244 242
271 272 271 269 269 268 267 267 266 265 264 263 263 263 263 261 258 254 252 249 249 251 251 248 248 251 252 247 243 245 246 247 250 252 251 248 250 251
274 274 272 271 270 269 268 268 268 267 265 263 262 261 261 261 258 255 250 248 247 246 244 245 247 251 251 246 243 245 247 248 251 253 252 252 253 256
273 273 274 273 272 271 270 269 268 268 266 265 264 262 260 258 257 255 250 245 242 242 242 243 246 249 250 249 247 248 247 245 245 248 250 253 255 256
276 276 276 276 275 274 273 271 268 266 265 264 263 262 261 259 257 255 253 248 243 240 241 243 246 247 249 249 249 248 246 244 243 246 249 252 255 257
286 284 282 281 281 279 277 274 270 267 265 265 265 265 264 263 260 258 255 253 251 247 244 242 244 245 246 248 248 249 248 248 249 251 253 254 255 257
295 294 293 291 288 285 281 278 275 272 269 266 264 263 265 266 267 266 264 260 256 253 249 248 247 246 247 247 248 249 251 253 254 256 258 258 257 256
296 294 293 292 291 289 287 284 281 278 275 271 266 263 262 264 267 270 270 267 262 257 254 251 250 250 249 250 250 250 252 254 256 257 259 261 261 260
299 296 295 294 295 295 294 291 287 283 279 275 270 265 262 261 262 265 268 269 268 265 262 258 255 252 251 251 251 252 253 255 256 256 258 259 260 261
307 307 307 306 305 303 300 295 290 285 280 275 272 268 265 262 261 261 262 263 263 264 265 262 258 255 252 252 252 253 255 256 257 258 258 258 257 257
320 321 320 319 317 315 312 306 299 292 286 280 275 271 268 266 264 263 262 261 260 260 260 262 261 259 257 256 254 253 254 255 254 255 256 256 255 254
327 326 326 325 324 323 320 317 313 307 301 295 289 282 276 271 268 266 264 261 259 257 257 257 258 257 256 254 252 251 252 252 252 253 254 255 255 254
330 326 324 324 323 323 322 320 317 314 311 307 303 297 291 286 282 277 271 265 261 257 255 253 254 254 256 255 252 246 244 246 247 248 248 250 251 252
331 327 323 321 320 320 318 316 312 310 308 307 305 302 298 294 293 291 283 273 265 260 256 254 252 251 252 253 251 247 243 242 244 246 246 246 246 245
332 331 328 325 323 321 319 316 313 310 309 307 306 305 304 300 298 297 293 284 274 266 260 256 253 251 251 250 249 248 246 246 245 245 244 243 246 246
335 336 335 333 329 326 323 319 316 314 313 312 311 310 310 308 304 301 298 293 285 277 269 262 257 253 251 249 248 246 244 245 244 241 239 237 241 246
Height
5779 5776 5773 5770 5769 5768 5767 5766 5767 5767 5767 5767 5767 5768 5769 5769 5771 5772 5773 5774 5775 5776 5778 5780 5782 5783 5784 5786 5788 5789 5790 5791 5792 5793 5794 5796 5796 5796
5771 5769 5766 5764 5761 5759 5758 5757 5757 5758 5758 5758 5758 5759 5759 5760 5761 5762 5763 5764 5765 5767 5769 5771 5773 5775 5777 5779 5781 5782 5783 5785 5786 5787 5788 5789 5790 5790
5764 5763 5761 5759 5756 5754 5751 5749 5749 5749 5749 5749 5749 5750 5750 5751 5753 5753 5754 5755 5756 5758 5760 5763 5765 5767 5770 5772 5773 5775 5777 5778 5779 5781 5782 5783 5784 5785
5756 5756 5755 5753 5751 5749 5746 5743 5741 5741 5741 5741 5741 5742 5742 5743 5744 5746 5747 5748 5749 5750 5753 5755 5757 5760 5763 5765 5766 5768 5769 5770 5772 5774 5776 5777 5779 5779
5748 5747 5747 5746 5746 5744 5742 5739 5737 5735 5734 5734 5734 5735 5735 5736 5737 5738 5740 5741 5743 5744 5746 5748 5751 5753 5756 5757 5759 5761 5763 5765 5767 5768 5770 5772 5773 5773
5739 5738 5738 5737 5737 5737 5735 5734 5733 5731 5729 5729 5729 5729 5729 5730 5730 5731 5733 5735 5737 5739 5741 5742 5745 5746 5748 5750 5752 5754 5756 5758 5760 5762 5764 5765 5767 5768
5730 5729 5729 5728 5728 5728 5728 5727 5727 5726 5725 5724 5724 5724 5724 5725 5726 5727 5728 5729 5731 5734 5735 5737 5739 5740 5741 5744 5745 5747 5749 5751 5753 5756 5758 5759 5761 5762
5722 5722 5721 5720 5719 5719 5719 5719 5719 5718 5718 5718 5718 5718 5719 5719 5720 5722 5723 5724 5726 5728 5729 5732 5733 5734 5736 5737 5739 5741 5743 5744 5747 5749 5752 5754 5755 5757
5715 5714 5713 5712 5711 5711 5710 5710 5710 5710 5710 5711 5710 5710 5711 5712 5713 5715 5717 5718 5720 5721 5722 5724 5725 5727 5729 5731 5733 5735 5736 5738 5740 5743 5745 5747 5749 5751
5707 5706 5705 5704 5703 5702 5701 5700 5700 5700 5700 5701 5701 5701 5702 5702 5704 5706 5708 5710 5711 5713 5713 5714 5717 5719 5721 5723 5725 5727 5729 5731 5733 5735 5738 5740 5742 5743
5699 5698 5697 5697 5695 5694 5693 5692 5691 5690 5690 5690 5690 5691 5691 5692 5693 5695 5698 5700 5702 5704 5705 5706 5708 5711 5713 5715 5717 5718 5721 5723 5725 5727 5730 5732 5734 5735
5693 5691 5690 5689 5687 5686 5684 5683 5682 5681 5680 5679 5679 5679 5679 5680 5682 5683 5685 5688 5690 5693 5695 5697 5699 5702 5704 5706 5708 5710 5712 5714 5716 5718 5721 5723 5724 5726
5686 5685 5683 5681 5680 5678 5676 5674 5673 5672 5671 5670 5669 5668 5668 5668 5669 5670 5672 5674 5677 5679 5682 5684 5687 5689 5692 5694 5696 5699 5701 5703 5705 5708 5710 5713 5715 5717
5679 5677 5675 5673 5671 5670 5668 5666 5665 5664 5663 5662 5661 5660 5659 5658 5658 5659 5659 5661 5663 5666 5668 5670 5673 5675 5678 5680 5683 5686 5688 5690 5693 5695 5698 5701 5704 5706
5673 5670 5667 5665 5662 5660 5658 5657 5655 5654 5653 5652 5651 5650 5650 5649 5649 5649 5649 5649 5650 5651 5653 5655 5658 5661 5664 5666 5668 5671 5674 5677 5679 5682 5684 5687 5690 5693
5666 5663 5660 5657 5654 5651 5649 5647 5645 5643 5641 5640 5639 5639 5639 5639 5639 5639 5639 5639 5639 5639 5640 5642 5644 5647 5650 5652 5655 5658 5660 5663 5665 5667 5670 5673 5677 5680
5659 5655 5652 5648 5645 5643 5640 5638 5635 5633 5631 5629 5628 5628 5627 5627 5628 5628 5628 5629 5629 5629 5630 5630 5631 5633 5636 5639 5641 5644 5647 5649 5651 5653 5657 5660 5663 5666
5651 5647 5644 5641 5638 5635 5632 5630 5627 5625 5622 5620 5619 5618 5617 5617 5617 5617 5617 5617 5617 5618 5619 5619 5620 5621 5623 5625 5627 5630 5633 5637 5639 5641 5644 5647 5650 5653
5646 5642 5639 5636 5632 5629 5626 5622 5619 5616 5614 5612 5610 5608 5607 5606 5606 5605 5605 5604 5605 5606 5607 5608 5609 5610 5612 5614 5615 5617 5620 5623 5627 5630 5632 5634 5638 5641
5641 5638 5634 5630 5627 5623 5620 5616 5612 5609 5606 5603 5601 5599 5597 5596 5594 5593 5592 5591 5591 5592 5594 5595 5597 5598 5601 5603 5605 5607 5608 5611 5614 5618 5620 5623 5626 5629
5637 5633 5629 5625 5621 5617 5613 5609 5606 5602 5599 5596 5593 5590 5588 5586 5584 5581 5578 5577 5576 5577 5579 5581 5583 5585 5588 5591 5594 5597 5599 5601 5604 5607 5609 5612 5615 5617
5633 5629 5624 5620 5615 5611 5607 5602 5599 5595 5592 5588 5585 5582 5579 5577 5574 5571 5567 5565 5563 5563 5564 5566 5568 5571 5574 5577 5581 5585 5588 5591 5594 5597 5600 5602 5604 5607
5628 5624 5620 5615 5610 5606 5601 5596 5592 5588 5585 5581 5578 5575 5571 5568 5565 5562 5559 5556 5554 5553 5552 5552 5554 5556 5559 5562 5566 5571 5575 5579 5583 5587 5590 5592 5594 5597